Dewpoint
59 60 57 54 54 53 54 55 60 61 58 57 53 50 51 55 54 55 53 54 53 50 50 51 51 51 51 51 51 50 50 50 50 50 49 49 49 49 48 48 49 49 49
54 53 51 50 50 48 49 48 50 58 58 53 49 49 49 50 53 53 51 51 52 51 49 50 50 51 51 51 50 50 49 49 49 49 49 48 48 48 48 48 48 48 49
50 50 48 47 49 45 45 48 55 57 55 54 50 49 49 46 42 51 49 48 49 52 50 49 48 49 49 50 50 49 49 48 48 48 47 48 49 48 48 48 48 48 48
47 46 44 46 46 45 48 52 55 54 52 51 50 46 43 39 36 39 42 43 44 45 49 48 47 47 47 48 49 49 49 48 47 47 47 48 48 48 48 48 48 48 48
45 44 45 46 46 46 48 50 50 53 52 51 49 46 39 35 33 37 37 37 40 42 44 47 46 47 47 46 48 48 49 48 47 47 47 48 47 46 47 46 47 47 47
47 45 45 45 46 46 46 44 41 43 43 44 48 46 43 37 36 37 36 37 37 38 41 42 42 42 48 46 47 48 48 48 47 47 47 46 45 46 45 45 46 46 46
45 44 44 45 45 46 46 46 43 39 41 43 49 49 46 38 37 38 37 37 35 35 39 38 39 38 40 47 47 46 46 46 46 46 44 44 45 45 45 44 45 44 45
43 44 44 44 43 44 44 44 44 41 42 43 41 46 43 41 39 38 38 38 36 35 38 37 39 38 39 43 42 44 44 44 44 44 43 44 44 42 43 43 43 43 44
44 44 44 44 44 45 44 44 43 43 41 42 42 40 35 34 38 40 36 36 37 38 37 38 37 39 40 41 41 40 41 41 41 42 43 44 42 42 42 42 43 43 43
42 43 44 43 44 44 44 43 43 43 40 39 39 39 38 36 34 33 36 36 35 35 38 38 38 38 39 40 40 41 40 40 39 41 42 41 42 41 41 41 41 41 42
41 43 43 43 44 44 44 44 44 42 43 39 37 37 36 36 36 34 31 33 35 35 37 38 38 38 38 37 38 39 41 41 40 40 40 41 41 41 41 41 41 42 44
42 42 42 43 43 43 43 43 42 42 41 40 40 38 37 35 35 34 33 33 32 33 35 37 36 37 37 38 38 39 41 41 41 40 39 39 39 40 41 41 43 43 43
40 41 41 41 41 41 43 43 43 41 41 40 39 39 38 37 37 36 35 33 32 34 33 37 36 37 35 38 38 39 39 40 42 39 40 39 38 39 39 40 41 41 42
40 40 41 41 41 42 41 41 41 41 40 40 37 38 38 39 38 37 35 34 32 32 33 32 35 35 36 37 39 39 35 40 39 40 41 40 37 38 38 39 40 40 40
41 41 40 39 40 40 39 40 40 38 39 39 38 38 37 39 39 38 37 36 34 31 31 33 32 34 36 37 38 35 35 37 38 39 40 41 39 38 39 39 38 37 37
42 41 40 39 39 40 40 38 39 39 38 38 39 36 36 38 38 37 37 37 36 33 30 33 32 34 35 32 36 34 34 35 37 38 39 40 40 39 39 38 37 37 36
42 41 41 40 39 38 37 36 37 38 37 36 37 36 36 37 36 35 36 36 35 34 31 32 34 34 34 32 32 33 33 32 33 37 38 38 39 40 39 37 36 35 34
42 41 41 40 39 39 37 36 36 36 36 36 36 36 35 33 34 34 34 33 33 33 32 30 31 32 31 33 31 32 31 30 32 35 38 38 39 40 39 37 36 35 34
41 41 39 39 39 38 37 36 36 36 36 36 35 35 34 32 32 32 32 32 32 32 32 31 30 31 31 32 30 31 30 31 32 35 36 37 37 39 38 36 36 36 35
40 39 39 40 39 37 36 35 35 35 36 36 36 36 34 32 32 31 31 31 31 31 31 30 29 29 30 30 31 30 30 32 32 32 34 36 35 38 37 36 36 36 36
40 40 40 39 38 34 31 35 34 33 32 34 35 36 35 34 35 33 31 30 30 30 30 29 28 29 28 30 30 31 31 32 32 32 35 33 31 33 37 35 36 36 35
40 40 39 38 36 29 35 35 35 32 32 32 32 34 33 35 35 34 33 33 34 30 28 28 29 29 29 30 32 32 32 32 30 33 35 29 31 30 34 34 37 36 35
39 39 39 38 33 29 33 32 31 33 33 32 32 32 33 31 32 29 30 33 34 33 32 29 29 29 30 32 33 33 33 33 32 34 32 24 29 28 32 34 37 35 35
39 39 39 39 32 28 33 32 30 30 34 33 32 32 33 30 30 29 29 32 31 30 30 30 31 32 33 34 34 34 34 35 32 32 32 23 30 27 31 35 36 35 34
39 39 39 39 35 31 33 32 28 28 32 32 32 33 32 29 31 30 30 31 28 28 30 33 34 35 34 35 35 35 33 31 26 26 29 25 31 25 25 31 32 35 35
39 39 39 40 35 32 34 33 30 31 32 32 31 30 32 29 30 30 29 28 26 26 30 31 32 32 33 33 34 35 35 29 30 24 33 26 30 27 22 28 28 34 34
Lifted_Index
2 2 2 2 2 2 3 2 2 1 2 3 4 4 5 5 7 8 9 11 12 13 13 13 13 13 13 13 13 13 13 13 13 13 13 13 13 12 12 12 12 11 11
3 4 4 4 4 5 5 4 3 2 3 4 5 6 6 7 8 9 11 12 13 13 13 13 13 13 13 13 13 13 13 13 13 13 13 12 12 12 12 12 12 11 11
6 6 7 7 8 8 7 5 3 3 3 4 6 8 9 10 11 11 12 13 13 13 13 13 13 13 13 13 13 13 13 13 13 13 12 12 12 12 12 12 12 12 11
9 9 10 10 10 9 7 5 3 3 4 5 6 8 10 12 13 13 13 14 14 13 13 13 13 13 13 13 12 12 12 13 13 13 12 12 12 12 12 12 12 12 12
10 11 11 11 10 9 7 5 4 4 5 5 7 8 10 12 13 14 14 14 14 14 13 13 13 13 12 12 12 12 12 13 13 13 13 13 13 13 13 13 13 13 13
11 11 12 11 11 9 7 6 4 4 5 5 6 7 9 12 12 13 13 13 14 14 13 13 13 13 12 12 12 12 13 13 13 13 14 14 14 14 14 14 14 14 14
12 12 12 12 11 10 9 8 7 6 5 5 5 6 8 10 11 12 12 13 13 13 13 13 13 13 13 13 13 13 14 14 14 14 14 14 14 14 14 14 14 14 14
13 13 12 12 12 11 11 10 10 9 8 6 5 5 7 9 10 11 12 12 12 12 12 13 13 13 13 14 14 14 15 15 15 15 15 15 15 15 15 15 15 14 14
13 13 13 13 13 12 12 11 11 11 10 8 6 6 8 9 9 10 11 11 12 12 12 12 12 13 13 14 15 15 16 16 16 16 15 15 15 15 15 15 15 14 14
14 14 14 13 13 13 13 12 12 12 11 10 9 9 10 10 10 10 10 11 12 12 12 12 12 13 13 14 15 15 16 16 17 16 16 16 16 15 15 15 15 14 14
15 14 14 14 14 13 13 13 13 12 12 11 11 11 11 11 11 10 10 11 12 12 12 11 12 12 13 14 15 16 16 16 17 16 16 16 16 16 15 15 14 13 13
14 14 14 14 13 13 13 13 13 12 12 12 12 12 12 11 11 11 10 10 11 12 12 11 12 13 14 15 15 16 16 16 16 16 16 16 16 16 15 14 13 12 12
14 14 14 14 13 13 13 13 13 13 12 12 12 12 12 12 12 12 11 10 10 11 12 12 13 14 15 15 15 16 16 16 16 16 16 16 16 15 14 14 13 12 11
14 14 14 14 13 13 13 13 13 13 13 13 12 12 12 13 13 12 12 11 10 10 12 13 14 15 15 15 16 16 16 17 17 17 16 16 15 15 14 13 12 12 12
13 13 13 13 13 13 13 13 13 13 13 13 13 13 13 13 13 13 13 12 11 10 11 13 15 15 15 16 16 16 16 17 17 17 16 15 14 14 13 13 12 12 12
13 13 13 13 13 13 13 13 13 13 13 13 13 13 13 13 13 13 13 13 13 12 12 14 15 16 16 16 16 16 17 17 17 17 16 15 14 13 13 12 12 12 13
12 12 13 13 13 13 14 14 13 13 13 13 13 13 13 13 13 14 14 14 14 14 13 14 15 16 16 16 16 16 17 17 17 16 16 14 14 13 12 12 12 12 12
12 12 12 13 13 14 14 13 13 13 13 12 12 13 13 13 14 14 14 14 15 15 14 14 15 16 15 15 15 15 16 16 17 16 15 14 13 13 12 12 12 12 12
12 12 12 13 13 14 14 13 13 13 13 13 13 13 13 14 14 14 14 15 15 15 15 14 15 15 15 15 15 14 15 15 16 16 15 14 14 13 12 12 12 12 11
11 12 12 13 13 14 14 13 13 13 13 13 13 13 14 14 14 15 15 15 15 15 15 14 15 15 15 15 14 14 14 14 15 15 15 15 14 13 12 12 12 11 11
11 12 12 13 13 14 14 14 13 13 13 13 13 14 14 15 15 15 15 15 15 15 14 14 14 15 15 14 14 14 13 13 14 15 15 14 14 13 12 12 11 11 11
12 12 12 12 13 14 14 14 14 13 13 13 13 14 14 15 16 16 16 16 16 15 15 15 15 15 15 15 15 15 14 14 14 15 15 14 13 13 12 12 11 10 10
12 12 12 12 13 13 14 14 14 14 14 14 14 14 14 15 16 16 16 16 16 16 16 16 16 16 16 16 17 16 15 14 14 15 14 13 13 13 12 11 10 10 10
11 11 12 12 12 13 14 14 14 14 14 14 14 14 14 15 16 16 16 16 16 17 17 17 17 17 18 18 17 17 16 15 14 14 14 13 12 12 11 11 10 10 10
11 11 11 12 12 12 13 14 14 14 14 14 14 14 15 15 16 16 15 15 16 16 17 17 17 18 18 18 18 17 15 14 13 14 14 13 12 11 11 11 10 10 10
11 11 11 12 12 12 13 14 14 14 14 13 14 14 15 15 16 16 15 15 15 16 16 17 17 17 18 18 18 17 15 14 13 13 14 13 12 11 10 10 10 10 10